This is the latest recevied weather packets stored in our database for station/object LA3SP-1. If no packets are shown the sender has not sent any weather packets the latest 10 day(s).
| Time | Temp. | Humidity | Pressure | Rain* | Wind** | Luminosity | Snow |
|---|---|---|---|---|---|---|---|
| 1778260316 | 6.67° C | 54% | 1016 hPa | 0 mm | - | - | - |
| 1778259113 | 6.67° C | 54% | 1016 hPa | 0 mm | - | - | - |
| 1778258511 | 6.67° C | 54% | 1016.1 hPa | 0 mm | - | - | - |
| 1778257910 | 6.11° C | 54% | 1015.9 hPa | 0 mm | - | - | - |
| 1778255602 | 6.67° C | 51% | 1016 hPa | 0 mm | - | - | - |
| 1778255505 | 6.67° C | 51% | 1016 hPa | 0 mm | - | - | - |
| 1778253897 | 7.22° C | 51% | 1016 hPa | 0 mm | - | - | - |
| 1778253700 | 7.22° C | 51% | 1016 hPa | 0 mm | - | - | - |
| 1778250092 | 8.33° C | 52% | 1016 hPa | 0 mm | - | - | - |
| 1778249490 | 8.33° C | 51% | 1016.2 hPa | 0 mm | - | - | - |
| 1778247687 | 7.78° C | 51% | 1016.1 hPa | 0 mm | - | - | - |
| 1778247085 | 7.78° C | 52% | 1016.1 hPa | 0 mm | - | - | - |
| 1778245738 | 7.22° C | 53% | 1015.9 hPa | 0 mm | - | - | - |
| 1778245281 | 7.78° C | 52% | 1016.1 hPa | 0 mm | - | - | - |
| 1778244078 | 7.22° C | 52% | 1016 hPa | 0 mm | - | - | - |
| 1778242274 | 7.22° C | 53% | 1015.9 hPa | 0 mm | - | - | - |
| 1778241672 | 7.22° C | 52% | 1015.8 hPa | 0 mm | - | - | - |
| 1778241071 | 7.22° C | 52% | 1015.9 hPa | 0 mm | - | - | - |
| 1778238666 | 7.22° C | 52% | 1015.5 hPa | 0 mm | - | - | - |
| 1778238064 | 7.22° C | 52% | 1015.4 hPa | 0 mm | - | - | - |
| 1778235659 | 7.22° C | 51% | 1015.1 hPa | 0 mm | - | - | - |
| 1778234456 | 7.22° C | 50% | 1015 hPa | 0 mm | - | - | - |
| 1778232051 | 7.22° C | 54% | 1015.1 hPa | 0 mm | - | - | - |
| 1778231449 | 7.78° C | 53% | 1015 hPa | 0 mm | - | - | - |
| 1778229646 | 7.22° C | 53% | 1014.9 hPa | 0 mm | - | - | - |
* Rain latest 24 hours (hover to see other rain measurements)
** Current wind speed in m/s (hover to see current wind gust speed)